weather.gov     
National Weather Service

Terminal Aerodrome Forecast
NWS Homepage
This page is being discontinued on March 12, 2014.
The same data is available at this site. Please update your bookmarks.
Thank you, and we apologize for the inconvenience.
Please send an email to SR-SRH.Webmaster@noaa.gov with any concerns.


Current Version
Previous Version:    01  02  03  04  05  06  07  08  09  10  11  12  13  14  15  16  17  18  19  20  21  22  23  24  25  26  27  28  29  30  
   31  32  33  34  35  
[Printable]
627
FTUS46 KMFR 300500
TAFOTH
TAF
KOTH 300537Z 3006/3106 36011KT P6SM OVC005
     FM300800 36010KT 3SM BR OVC004
     FM301300 36010KT P6SM OVC005
     FM301900 36018G30KT P6SM SCT010 BKN250
     FM310100 36016G25KT P6SM OVC008
     FM310400 36014KT P6SM OVC005=


U.S. Dept. of Commerce
NOAA National Weather Service
1325 East West Highway
Silver Spring, MD 20910
E-mail: w-nws.webmaster@noaa.gov
Page last modified: May 16, 2007
NATIONAL WEATHER SERVICE: for Safety, for Work, for Fun - FOR LIFE